Date String (YYYY-MM-DD hh:mm:ss) UTC,Instrument flags,Ambient pressure (hPa),Sample flow (lpm),Bypass flow (lpm),Sample temperature (°C),Ambient temperature (°C),ASC tube jacket temperature (°C),LED temperature (°C),Box temperature (°C),Sample RH (%),Span deviation,Mass concentration (μg/m³),Mass concentration (μg/m³),Mass concentration (μg/m³)
DateTimeUTC,F1_M11,P_M11,Q1_M11,Q2_M11,T1_M11,T2_M11,T3_M11,T4_M11,T5_M11,U1_M11,ZSPAN_M11,X0_M11,X2_M11,X1_M11
2022-05-16 02:00:00,,0828.5,5.00,0.00,29.6,28.3,00.0,38.4,31.5,15.6,0000.0,0010.78,0003.17,0001.56
2022-05-16 02:01:00,,0828.4,5.00,0.00,29.6,28.4,00.0,38.4,31.5,15.6,0000.0,0011.82,0003.21,0001.57
2022-05-16 02:02:00,,0828.6,5.00,0.00,29.7,28.5,00.0,38.4,31.6,15.6,0000.0,0012.44,0003.25,0001.57
2022-05-16 02:03:00,,0828.5,5.00,0.00,29.7,28.7,00.0,38.5,31.6,15.6,0000.0,0013.71,0003.29,0001.58
2022-05-16 02:04:00,,0828.5,5.01,0.00,29.7,28.7,00.0,38.5,31.6,15.5,0000.0,0013.78,0003.38,0001.60
2022-05-16 02:05:00,,0828.5,5.00,0.00,29.8,28.8,00.0,38.5,31.7,15.5,0000.0,0014.23,0003.41,0001.61
2022-05-16 02:06:00,,0828.6,5.00,0.00,29.8,28.9,00.0,38.5,31.7,15.5,0000.0,0014.48,0003.39,0001.63
2022-05-16 02:07:00,,0829.0,4.99,0.00,29.9,28.9,00.0,38.6,31.7,15.5,0000.0,0015.78,0003.40,0001.63
2022-05-16 02:08:00,,0829.0,5.00,0.00,29.9,28.9,00.0,38.6,31.7,15.5,0000.0,0015.52,0003.48,0001.65
2022-05-16 02:09:00,,0829.0,5.01,0.00,29.8,27.1,00.0,38.6,31.4,15.5,0000.0,0017.13,0003.52,0001.67
2022-05-16 02:10:00,,0829.0,4.99,0.00,29.6,25.0,00.0,38.6,30.9,15.6,0000.0,0018.56,0003.62,0001.69
2022-05-16 02:11:00,,0829.0,5.00,0.00,29.5,25.0,00.0,38.5,30.9,15.7,0000.0,0019.00,0003.66,0001.70
2022-05-16 02:12:00,,0829.0,5.00,0.00,29.4,25.5,00.0,38.5,30.9,15.8,0000.0,0018.83,0003.65,0001.70
2022-05-16 02:13:00,,0829.1,5.01,0.00,29.4,26.0,00.0,38.4,30.9,15.9,0000.0,0018.57,0003.65,0001.71
2022-05-16 02:14:00,,0828.9,5.00,0.00,29.4,26.6,00.0,38.4,31.0,15.9,0000.0,0017.89,0003.64,0001.72
2022-05-16 02:15:00,,0829.0,5.00,0.00,29.4,27.0,00.0,38.4,31.1,15.9,0000.0,0018.36,0003.60,0001.70
2022-05-16 02:16:00,,0829.0,5.00,0.00,29.4,27.4,00.0,38.4,31.2,15.9,0000.0,0018.94,0003.59,0001.69
2022-05-16 02:17:00,,0829.1,4.99,0.00,29.5,27.7,00.0,38.4,31.3,15.8,0000.0,0018.54,0003.63,0001.69
2022-05-16 02:18:00,,0829.0,5.00,0.00,29.5,27.9,00.0,38.4,31.3,15.8,0000.0,0017.23,0003.69,0001.69
2022-05-16 02:19:00,,0829.0,4.99,0.00,29.5,28.1,00.0,38.4,31.4,15.8,0000.0,0018.17,0003.63,0001.67
2022-05-16 02:20:00,,0829.0,5.00,0.00,29.6,28.3,00.0,38.4,31.4,15.7,0000.0,0017.56,0003.60,0001.67
2022-05-16 02:21:00,,0828.9,5.00,0.00,29.6,28.4,00.0,38.4,31.5,15.7,0000.0,0016.94,0003.59,0001.67
2022-05-16 02:22:00,,0828.5,4.99,0.00,29.7,28.5,00.0,38.4,31.6,15.6,0000.0,0017.17,0003.59,0001.67
2022-05-16 02:23:00,,0828.6,5.00,0.00,29.7,28.6,00.0,38.5,31.6,15.6,0000.0,0016.60,0003.56,0001.66
2022-05-16 02:24:00,,0828.7,5.01,0.00,29.7,28.7,00.0,38.5,31.7,15.6,0000.0,0016.37,0003.55,0001.64
2022-05-16 02:25:00,,0828.7,5.00,0.00,29.8,28.8,00.0,38.5,31.7,15.5,0000.0,0016.33,0003.51,0001.63
2022-05-16 02:26:00,,0828.7,4.99,0.00,29.8,28.9,00.0,38.5,31.8,15.5,0000.0,0016.03,0003.47,0001.63
2022-05-16 02:27:00,,0828.7,4.99,0.00,29.9,29.0,00.0,38.6,31.8,15.4,0000.0,0014.94,0003.42,0001.63
2022-05-16 02:28:00,,0828.7,5.00,0.00,29.9,29.0,00.0,38.6,31.8,15.4,0000.0,0015.23,0003.38,0001.61
2022-05-16 02:29:00,,0828.7,5.00,0.00,29.9,29.1,00.0,38.6,31.8,15.3,0000.0,0014.98,0003.33,0001.61
2022-05-16 02:30:00,,0828.7,5.01,0.00,29.9,28.1,00.0,38.7,31.6,15.3,0000.0,0013.52,0003.36,0001.62
2022-05-16 02:31:00,,0828.7,4.99,0.00,29.8,25.5,00.0,38.6,31.0,15.4,0000.0,0012.54,0003.39,0001.62
2022-05-16 02:32:00,,0828.7,5.00,0.00,29.6,24.8,00.0,38.6,30.9,15.4,0000.0,0011.86,0003.38,0001.63
2022-05-16 02:33:00,,0829.0,5.01,0.00,29.5,25.2,00.0,38.5,30.9,15.5,0000.0,0012.25,0003.42,0001.65
2022-05-16 02:34:00,,0829.1,4.99,0.00,29.5,25.8,00.0,38.5,31.0,15.6,0000.0,0012.01,0003.44,0001.67
2022-05-16 02:35:00,,0829.3,5.01,0.00,29.4,26.3,00.0,38.5,31.1,15.6,0000.0,0012.25,0003.44,0001.69
2022-05-16 02:36:00,,0829.3,4.99,0.00,29.4,26.8,00.0,38.4,31.2,15.5,0000.0,0012.05,0003.42,0001.70
2022-05-16 02:37:00,,0829.3,4.99,0.00,29.5,27.2,00.0,38.4,31.2,15.6,0000.0,0012.32,0003.46,0001.71
2022-05-16 02:38:00,,0829.3,4.99,0.00,29.5,27.5,00.0,38.4,31.3,15.5,0000.0,0012.66,0003.49,0001.73
2022-05-16 02:39:00,,0829.2,5.01,0.00,29.5,27.7,00.0,38.4,31.3,15.5,0000.0,0012.06,0003.46,0001.73
2022-05-16 02:40:00,,0828.8,5.00,0.00,29.5,27.9,00.0,38.4,31.4,15.4,0000.0,0012.79,0003.45,0001.74
2022-05-16 02:41:00,,0828.8,5.00,0.00,29.6,28.1,00.0,38.4,31.4,15.5,0000.0,0012.95,0003.42,0001.74
2022-05-16 02:42:00,,0828.8,5.01,0.00,29.6,28.2,00.0,38.4,31.5,15.5,0000.0,0013.51,0003.41,0001.73
2022-05-16 02:43:00,,0828.9,4.99,0.00,29.6,28.3,00.0,38.5,31.5,15.5,0000.0,0013.42,0003.35,0001.71
2022-05-16 02:44:00,,0829.0,5.00,0.00,29.7,28.4,00.0,38.5,31.5,15.2,0000.0,0012.59,0003.28,0001.69
2022-05-16 02:45:00,,0829.0,4.99,0.00,29.7,28.5,00.0,38.5,31.6,15.2,0000.0,0012.48,0003.27,0001.69
2022-05-16 02:46:00,,0829.0,5.00,0.00,29.7,28.6,00.0,38.5,31.6,15.2,0000.0,0012.76,0003.27,0001.68
2022-05-16 02:47:00,,0829.0,5.01,0.00,29.8,28.6,00.0,38.5,31.6,15.2,0000.0,0012.83,0003.28,0001.68
2022-05-16 02:48:00,,0829.0,5.00,0.00,29.8,28.7,00.0,38.6,31.7,15.0,0000.0,0012.24,0003.31,0001.70
2022-05-16 02:49:00,,0829.0,4.99,0.00,29.8,28.7,00.0,38.6,31.7,15.1,0000.0,0012.12,0003.28,0001.68
2022-05-16 02:50:00,,0829.1,5.00,0.00,29.8,28.8,00.0,38.6,31.7,15.1,0000.0,0011.45,0003.35,0001.69
2022-05-16 02:51:00,,0829.1,5.01,0.00,29.8,28.8,00.0,38.6,31.7,15.1,0000.0,0010.43,0003.37,0001.70
2022-05-16 02:52:00,,0829.1,5.00,0.00,29.9,28.9,00.0,38.7,31.7,15.1,0000.0,0010.08,0003.35,0001.69
2022-05-16 02:53:00,,0829.1,5.00,0.00,29.9,28.6,00.0,38.7,31.7,15.2,0000.0,0010.10,0003.31,0001.69
2022-05-16 02:54:00,,0829.1,5.01,0.00,29.8,26.5,00.0,38.7,31.2,15.3,0000.0,0010.47,0003.30,0001.69
2022-05-16 02:55:00,,0829.1,4.99,0.00,29.7,25.7,00.0,38.6,31.1,15.0,0000.0,0010.34,0003.32,0001.68
2022-05-16 02:56:00,,0829.1,4.99,0.00,29.6,26.0,00.0,38.6,31.1,15.1,0000.0,0010.90,0003.29,0001.66
2022-05-16 02:57:00,,0829.0,5.00,0.00,29.5,26.4,00.0,38.6,31.2,15.1,0000.0,0011.02,0003.31,0001.64
2022-05-16 02:58:00,,0829.1,5.00,0.00,29.5,26.9,00.0,38.5,31.2,15.2,0000.0,0011.86,0003.35,0001.65
2022-05-16 02:59:00,,0829.1,5.00,0.00,29.5,27.3,00.0,38.5,31.2,15.2,0000.0,0011.72,0003.37,0001.63
